Hourly Data Report for May 08, 2017

FISHER BRANCH (AUT)
MANITOBA

51°05'00.100" N
97°33'16.200" W
253.00 m
50309J6
71442
WSZ

Download Data

Hourly Data (May 2017)
Hourly Data Report for May 8, 2017
TIME
LST
Temp Definition
°C
Dew Point Definition
°C
Rel Hum Definition
%
Precip. Amount Definition
mm

Wind Dir Definition
10's deg

Wind Spd Definition
km/h
Visibility Definition
km
Stn Press Definition
kPa
Hmdx Definition


Wind Chill Definition


Weather Definition


00:00 9.2 -3.8 40 0.0 10 27   98.49     LegendNANA
01:00 8.4 -3.0 45 0.0 11 26   98.46     LegendNANA
02:00 7.6 -2.9 47 0.0 11 27   98.41     LegendNANA
03:00 7.4 -3.3 47 0.0 11 24   98.40     LegendNANA
04:00 7.8 -3.5 45 0.0 11 23   98.46     LegendNANA
05:00 7.3 -1.8 52 0.0 11 22   98.51     LegendNANA
06:00 6.1 0.3 66 0.3 11 22   98.50     LegendNANA
07:00 5.5 1.7 77 0.8 11 15   98.56     LegendNANA
08:00 4.4 1.9 84 4.9 10 28   98.42     LegendNANA
09:00 5.0 2.1 81 1.7 12 31   98.38     LegendNANA
10:00 6.1 1.8 74 0.0 11 26   98.28     LegendNANA
11:00 7.3 2.7 73 0.0 12 21   98.36     LegendNANA
12:00 8.8 2.7 66 0.0 10 26   98.23     LegendNANA
13:00 10.5 4.2 65 0.0 13 26   98.30     LegendNANA
14:00 9.4 3.8 68 0.0 12 23   98.30     LegendNANA
15:00 8.3 5.1 81 0.8 10 20   98.22     LegendNANA
16:00 8.1 5.8 86 1.1 11 16   98.27     LegendNANA
17:00 7.9 5.8 86 0.0 10 13   98.24     LegendNANA
18:00 8.3 5.5 83 0.0 10 15   98.21     LegendNANA
19:00 8.0 5.5 84 0.0 9 9   98.16     LegendNANA
20:00 7.9 5.2 83 0.0 10 11   98.15     LegendNANA
21:00 8.0 5.4 83 0.0 11 9   98.15     LegendNANA
22:00 8.0 5.8 86 0.0 17 1   98.13     LegendNANA
23:00 7.6 5.7 88 0.0 0 1   98.06     LegendNANA

Notes on Data Quality.

Legend

  • E = Estimated
  • M = Missing
  • NA = Not Available*
  • [empty] = Indicates an unobserved value
Date modified: